Prague, Czech Republic

5:49 AM CEST on May 30, 2017 (GMT +0200)
Ruzyne

Weather History for LKPR - November, 2012

Change the Weather History Date:

Thursday, November 29, 2012

  Actual Average Record
Temperature  
Mean Temperature 35 °F -  
Max Temperature 38 °F 35 °F 46 °F (2003)
Min Temperature 32 °F 26 °F 21 °F (2007)
Degree Days  
Heating Degree Days 30    
Moisture  
Dew Point 35 °F    
Average Humidity 97    
Maximum Humidity 100    
Minimum Humidity 93    
Precipitation  
Precipitation 0.31 in 0.03 in - ()
Sea Level Pressure  
Sea Level Pressure 29.27 in    
Wind  
Wind Speed 12 mph ()    
Max Wind Speed 18 mph    
Max Gust Speed -    
Visibility 4.2 miles    
Events Rain , Snow    
Averages and records for this station are not official NWS values.
T = Trace of Precipitation, MM = Missing Value Source: Averaged Metar Reports

Daily Weather History Graph

Daily Weather History Graph

Search for Another Location

Airport or City:

Trip Planner

Search our weather history database for the weather conditions in past years. The results will help you decide how hot, cold, wet, or windy it might be!

Date:

Astronomy

Nov. 29, 2012 Rise Set
Actual Time 7:37 AM CET 4:04 PM CET
Civil Twilight 7:00 AM CET 4:41 PM CET
Nautical Twilight 6:19 AM CET 5:22 PM CET
Astronomical Twilight 5:40 AM CET 6:01 PM CET
Moon 4:52 PM CET (11/29) 8:11 AM CET (11/29)
Length of Visible Light 9h 41m
Length of Day
8h 26m
Full, 99% of the Moon is Illuminated
Nov 29
Full
Dec 6
Last Quarter
Dec 13
New
Dec 20
First Quarter
Dec 28
Full

Hourly Weather History & Observations

Time (CET) Temp. Windchill Dew Point Humidity Pressure Visibility Wind Dir Wind Speed Gust Speed Precip Events Conditions
12:00 AM 42.8 °F 36.6 °F 42.8 °F 100% 29.36 in 1.4 mi North 11.5 mph - N/A Rain Light Rain
12:30 AM 42.8 °F 36.6 °F 41.0 °F 93% 29.36 in 1.9 mi North 11.5 mph - N/A Rain Light Rain
1:00 AM 42 °F - 42 °F 98% 29.37 in 3 mi North 15.7 mph - - Rain Light Rain
1:00 AM 41.0 °F 33.9 °F 41.0 °F 100% 29.33 in 3.1 mi North 12.7 mph - N/A Rain Light Rain
1:30 AM 41.0 °F 34.3 °F 41.0 °F 100% 29.30 in 3.1 mi North 11.5 mph - N/A Rain Light Rain
2:00 AM 41.0 °F 33.1 °F 41.0 °F 100% 29.30 in 4.3 mi North 15.0 mph - N/A Rain Rain
2:30 AM 41.0 °F 32.8 °F 41.0 °F 100% 29.27 in 3.7 mi North 16.1 mph - N/A Rain Light Rain
3:00 AM 41.0 °F 33.5 °F 39.2 °F 93% 29.27 in 4.3 mi North 13.8 mph - N/A Rain Light Rain
3:30 AM 39.2 °F 31.6 °F 39.2 °F 100% 29.24 in 5.0 mi North 12.7 mph - N/A Rain Light Rain
4:00 AM 39.2 °F 31.6 °F 39.2 °F 100% 29.24 in 6.2 mi North 12.7 mph - N/A Rain Light Rain
4:17 AM 39.2 °F 32.0 °F 39.2 °F 100% 29.21 in 3.1 mi North 11.5 mph - N/A Rain Light Rain
4:30 AM 39.2 °F 31.6 °F 39.2 °F 100% 29.21 in 2.5 mi North 12.7 mph - N/A Rain Light Rain
4:48 AM 39.2 °F 30.8 °F 39.2 °F 100% 29.21 in 3.7 mi North 15.0 mph - N/A Rain Light Rain
5:00 AM 39.2 °F 31.2 °F 39.2 °F 100% 29.21 in 3.7 mi North 13.8 mph - N/A Rain Light Rain
5:30 AM 39.2 °F 31.6 °F 39.2 °F 100% 29.18 in 4.3 mi North 12.7 mph - N/A Rain Light Rain
6:00 AM 39.2 °F 30.8 °F 39.2 °F 100% 29.18 in 4.3 mi North 15.0 mph - N/A Rain Rain
6:30 AM 39.2 °F 32.0 °F 37.4 °F 93% 29.18 in 5.0 mi North 11.5 mph - N/A Rain Rain
7:00 AM 39.2 °F 31.6 °F 37.4 °F 93% 29.18 in 4.3 mi NNW 12.7 mph - N/A Rain Rain
7:30 AM 37.4 °F 29.3 °F 37.4 °F 100% 29.15 in 3.7 mi NNW 12.7 mph - N/A Rain Light Rain
7:51 AM 37.4 °F 28.9 °F 37.4 °F 100% 29.15 in 5.6 mi NNW 13.8 mph - N/A Rain Light Rain
8:00 AM 37.4 °F 28.9 °F 37.4 °F 100% 29.15 in 3.1 mi NNW 13.8 mph - N/A Rain Light Rain
8:20 AM 37.4 °F 28.9 °F 37.4 °F 100% 29.15 in 5.0 mi NNW 13.8 mph - N/A Rain Light Rain
8:30 AM 37.4 °F 28.9 °F 37.4 °F 100% 29.15 in 3.7 mi NNW 13.8 mph - N/A Rain Light Rain
9:00 AM 37.4 °F 28.5 °F 37.4 °F 100% 29.15 in 5.0 mi NW 15.0 mph - N/A Rain Light Rain
9:30 AM 37.4 °F 28.2 °F 35.6 °F 93% 29.15 in 6.2 mi NNW 16.1 mph - N/A Rain Light Rain
10:00 AM 37.4 °F 28.2 °F 35.6 °F 93% 29.18 in 6.2 mi NW 16.1 mph - N/A Rain Light Rain
10:30 AM 35.6 °F 26.2 °F 35.6 °F 100% 29.18 in 6.2 mi NW 15.0 mph - N/A Rain Light Rain
10:51 AM 35.6 °F 28.0 °F 33.8 °F 93% 29.18 in 6.2 mi West 10.4 mph - N/A Rain , Snow Light Rain
11:00 AM 33.8 °F 25.3 °F 33.8 °F 100% 29.18 in 6.2 mi West 11.5 mph - N/A Rain , Snow Light Snow
11:30 AM 33.8 °F 25.8 °F 33.8 °F 100% 29.18 in 6.2 mi WNW 10.4 mph - N/A Rain , Snow Light Snow
12:00 PM 33.8 °F 25.3 °F 33.8 °F 100% 29.18 in 6.2 mi West 11.5 mph - N/A   Overcast
12:13 PM 33.8 °F 25.3 °F 33.8 °F 100% 29.21 in 6.2 mi West 11.5 mph - N/A   Overcast
12:30 PM 33.8 °F 25.8 °F 33.8 °F 100% 29.21 in 6.2 mi West 10.4 mph - N/A   Light Drizzle
1:00 PM 35 °F - 34 °F 94% 29.26 in 4 mi WNW 8.9 mph - - Rain Light Drizzle
1:00 PM 35.6 °F 27.5 °F 33.8 °F 93% 29.21 in 4.3 mi West 11.5 mph - N/A   Light Drizzle
1:30 PM 35.6 °F 28.0 °F 33.8 °F 93% 29.21 in 3.7 mi West 10.4 mph - N/A   Light Drizzle
2:00 PM 35.6 °F 27.5 °F 33.8 °F 93% 29.21 in 3.7 mi West 11.5 mph - N/A   Light Drizzle
2:30 PM 33.8 °F 25.3 °F 33.8 °F 100% 29.24 in 3.7 mi West 11.5 mph - N/A Rain , Snow Light Rain
3:00 PM 33.8 °F 25.3 °F 33.8 °F 100% 29.24 in 3.7 mi West 11.5 mph - N/A Rain , Snow Light Rain
3:30 PM 33.8 °F 25.3 °F 33.8 °F 100% 29.27 in 4.3 mi West 11.5 mph - N/A Rain , Snow Light Rain
4:00 PM 33.8 °F 24.8 °F 33.8 °F 100% 29.27 in 6.2 mi West 12.7 mph - N/A Rain , Snow Light Rain
4:30 PM 33.8 °F 25.3 °F 32.0 °F 93% 29.30 in 5.0 mi West 11.5 mph - N/A Rain , Snow Light Rain
4:40 PM 33.8 °F 24.8 °F 32.0 °F 93% 29.30 in 3.7 mi West 12.7 mph - N/A Rain Rain
5:00 PM 33.8 °F 23.9 °F 32.0 °F 93% 29.30 in 5.0 mi West 15.0 mph - N/A Rain Rain
5:30 PM 33.8 °F 24.3 °F 32.0 °F 93% 29.33 in 5.0 mi West 13.8 mph - N/A Rain Rain
5:40 PM 33.8 °F 23.9 °F 32.0 °F 93% 29.33 in 2.8 mi West 15.0 mph - N/A Snow Snow
5:41 PM 33.8 °F 23.9 °F 32.0 °F 93% 29.33 in 1.7 mi West 15.0 mph - N/A Snow Snow
6:00 PM 32.0 °F 22.1 °F 32.0 °F 100% 29.33 in 1.7 mi West 13.8 mph - N/A Snow Snow
6:30 PM 32.0 °F 22.1 °F 32.0 °F 100% 29.36 in 1.9 mi West 13.8 mph - N/A Snow Snow
7:00 PM 33 °F - 32 °F 93% 29.42 in 2 mi West 13.4 mph - - Snow Snow
7:00 PM 32.0 °F 22.1 °F 32.0 °F 100% 29.36 in 1.7 mi West 13.8 mph - N/A Snow Snow
7:30 PM 32.0 °F 21.6 °F 32.0 °F 100% 29.39 in 2.8 mi West 15.0 mph - N/A Snow Light Snow
8:00 PM 33.8 °F 23.5 °F 32.0 °F 93% 29.39 in 2.8 mi West 16.1 mph - N/A Snow Light Snow
8:30 PM 32.0 °F 21.6 °F 32.0 °F 100% 29.39 in - West 15.0 mph - N/A Snow Light Snow
9:00 PM 32.0 °F 21.2 °F 32.0 °F 100% 29.42 in 2.5 mi West 16.1 mph - N/A Snow Light Snow
9:30 PM 32.0 °F 21.2 °F 32.0 °F 100% 29.44 in 3.1 mi West 16.1 mph - N/A Snow Light Snow
10:00 PM 33.8 °F 23.5 °F 32.0 °F 93% 29.44 in 6.2 mi West 16.1 mph - N/A   Overcast
10:30 PM 33.8 °F 22.8 °F 32.0 °F 93% 29.44 in 6.2 mi WSW 18.4 mph - N/A Snow Light Snow
11:00 PM 33.8 °F 23.5 °F 32.0 °F 93% 29.47 in 6.2 mi WSW 16.1 mph - N/A   Mostly Cloudy
11:30 PM 33.8 °F 23.9 °F 32.0 °F 93% 29.47 in 6.2 mi West 15.0 mph - N/A   Mostly Cloudy